PSLV R/B

Satellite information

Favourite Embed

Satellite Type and Status

ROCKET BODYIN ORBIT

Key statistics

Satellite PSLV R/B at a glance.

Uptime

4575

Days in orbit

Revolutions

≈ 14.5

Per day

Orbit

SSO

Sun Synchronous Orbit

Inclination

98.1

Latest

Satellite identification and parameters

Extended collection of information and parameters for PSLV R/B.

Object identification

Identified? True

Debris? False

Object name: PSLV R/B

International designator: 2013-009H

Object number (NORAD): 39093

Object ID (CCSDS): 39093

Country: INDIA (IND)

Current information (Y/N): Y

RCS size: LARGE

Orbital parameters

Period: 99.416 minutes

Inclination: 98.0794 deg

SMA: 7108.816 km

Apoapsis: 761.605 km

Periapsis: 699.756 km

RAAN: 97.6336 deg

Eccentricy: 0.00435012

Argument of periapsis: 195.6312 deg

Mean anomaly: 164.3542 deg

Mean motion: 14.48461297 rev/day

Mean motion (dot): 0.00000527 rev/day2

B* drag term: 0.00015029811 1/REarth

Two-line elements (TLE)

Creation date: Sept. 4, 2025, 10:13 a.m.

Reference frame: TEME

Reference center: EARTH

Epoch: Sept. 4, 2025, 4:06 a.m. UTC

TLE line 0: 0 PSLV R/B

TLE line 1: 1 39093U 13009H 25247.17114586 .00000527 00000-0 15030-3 0 9996

TLE line 2: 2 39093 98.0794 97.6336 0043501 195.6312 164.3542 14.48461297661281

Live tracking on map

Real-time ground track for satellite PSLV R/B.

In-orbit conjunctions

A list of the most updated potential collisions computed for object PSLV R/B.

Target Orbit TCA Probability of collision Miss distance Type
FENGYUN 1C DEB SSO 2025-04-20 21:13:08 0.0001445203 140.0 (m) DEBRIS
FENGYUN 1C DEB SSO 2025-03-19 22:49:55 0.0001218632 259.0 (m) DEBRIS
COSMOS 886 DEB LEO 2024-10-28 18:14:21 0.0001054283 950.0 (m) DEBRIS
CZ-6A DEB LEO 2024-10-04 01:53:17 0.0009858038 188.0 (m) DEBRIS
CZ-2D R/B SSO 2024-08-15 20:02:50 0.0001583635 662.0 (m) ROCKET BODY

Associated space launch

SARAL or Satellite with ARgos and ALtiKa is a cooperative altimetry technology mission of Indian Space Research Organisation (ISRO) and CNES (Space Agency of France). SARAL is tasked to perform altimetric measurements designed to study ocean circulation and sea surface elevation.

PSLV R/B was lifted into orbit during the mission ‘PSLV-CA | SARAL’, on board a PSLV space rocket.

The launch took place on Feb. 25, 2013, 12:31 p.m. from Satish Dhawan Space Centre First Launch Pad.

For more information about the launch, click the button.

Launch to space PSLV-CA | SARAL
PSLV-CA | SARAL

Agency: N/A

Status: Launch Successful

Launch date: Feb. 25, 2013, 12:31 p.m. UTC

Rocket: PSLV

Launch pad: Satish Dhawan Space Centre First Launch Pad

Location: Satish Dhawan Space Centre, India

...

Latest news about this satellite

There are no fresh news available about this satellite. Check back as we update our databases every day.


Newsletter sign-up

Weekly statistics, charts and insights to help you stay on top of the space industry.